,,PressureMeas_1m,,PRMeasQMR101_1,,RHStat155_1m_1,,SRMeasQMS101R_1m,,TAStat155_1m_1,,GenWind_1,,GenWind_1,
2018-11-23, 07:00:06,VALID,920.006,VALID,0.0,VALID,99.221,VALID,35.082,VALID,20.088,VALID,193.0,VALID,0.0,
2018-11-23, 07:01:06,VALID,920.003,VALID,0.0,VALID,99.22,VALID,33.897,VALID,20.079,VALID,194.0,VALID,0.0,
2018-11-23, 07:02:06,VALID,920.021,VALID,0.0,VALID,99.237,VALID,33.541,VALID,20.095,VALID,203.0,VALID,0.0,
2018-11-23, 07:03:06,VALID,920.003,VALID,0.0,VALID,99.24,VALID,34.598,VALID,20.134,VALID,9.0,VALID,0.0,
2018-11-23, 07:04:06,VALID,919.992,VALID,0.0,VALID,99.183,VALID,36.42,VALID,20.052,VALID,354.0,VALID,0.0,
2018-11-23, 07:05:06,VALID,919.998,VALID,0.0,VALID,99.124,VALID,37.651,VALID,19.969,VALID,340.0,VALID,0.0,
2018-11-23, 07:06:06,VALID,919.995,VALID,0.0,VALID,99.133,VALID,38.172,VALID,19.948,VALID,1.0,VALID,0.0,
2018-11-23, 07:07:06,VALID,919.99,VALID,0.0,VALID,99.157,VALID,39.064,VALID,19.973,VALID,357.0,VALID,0.0,
2018-11-23, 07:08:06,VALID,920.017,VALID,0.0,VALID,99.155,VALID,40.484,VALID,19.981,VALID,352.0,VALID,0.0,
2018-11-23, 07:09:06,VALID,920.013,VALID,0.0,VALID,99.133,VALID,42.701,VALID,19.946,VALID,3.0,VALID,0.0,
2018-11-23, 07:10:06,VALID,920.028,VALID,0.0,VALID,99.128,VALID,44.957,VALID,19.966,VALID,339.0,VALID,0.0,
2018-11-23, 07:11:06,VALID,920.016,VALID,0.0,VALID,99.135,VALID,47.099,VALID,19.966,VALID,337.0,VALID,0.0,
2018-11-23, 07:12:06,VALID,920.015,VALID,0.0,VALID,99.126,VALID,49.378,VALID,19.955,VALID,353.0,VALID,0.0,
2018-11-23, 07:13:06,VALID,920.03,VALID,0.0,VALID,99.075,VALID,51.215,VALID,19.912,VALID,342.0,VALID,0.0,
2018-11-23, 07:14:06,VALID,920.037,VALID,0.0,VALID,99.124,VALID,53.275,VALID,19.979,VALID,356.0,VALID,0.0,
2018-11-23, 07:15:06,VALID,920.046,VALID,0.0,VALID,99.135,VALID,56.398,VALID,20.008,VALID,4.0,VALID,0.0,
2018-11-23, 07:16:06,VALID,920.057,VALID,0.0,VALID,99.046,VALID,59.519,VALID,19.968,VALID,360.0,VALID,0.0,
2018-11-23, 07:17:06,VALID,920.098,VALID,0.0,VALID,99.109,VALID,61.511,VALID,19.991,VALID,303.0,VALID,0.0,
2018-11-23, 07:18:06,VALID,920.104,VALID,0.0,VALID,99.087,VALID,63.633,VALID,20.008,VALID,331.0,VALID,0.0,
2018-11-23, 07:19:06,VALID,920.108,VALID,0.0,VALID,99.064,VALID,64.304,VALID,20.023,VALID,334.0,VALID,0.0,
2018-11-23, 07:20:06,VALID,920.139,VALID,0.0,VALID,98.998,VALID,64.265,VALID,19.996,VALID,17.0,VALID,0.0,
2018-11-23, 07:21:06,VALID,920.144,VALID,0.0,VALID,98.923,VALID,65.54,VALID,19.973,VALID,37.0,VALID,0.0,
2018-11-23, 07:22:06,VALID,920.156,VALID,0.0,VALID,98.889,VALID,69.686,VALID,19.992,VALID,34.0,VALID,0.0,
2018-11-23, 07:23:06,VALID,920.179,VALID,0.0,VALID,98.952,VALID,71.686,VALID,20.068,VALID,339.0,VALID,0.0,
2018-11-23, 07:24:06,VALID,920.191,VALID,0.0,VALID,98.848,VALID,76.585,VALID,20.053,VALID,333.0,VALID,0.0,
2018-11-23, 07:25:06,VALID,920.208,VALID,0.0,VALID,98.819,VALID,82.461,VALID,20.04,VALID,334.0,VALID,0.0,
2018-11-23, 07:26:06,VALID,920.211,VALID,0.0,VALID,98.76,VALID,90.023,VALID,20.023,VALID,357.0,VALID,0.0,
2018-11-23, 07:27:06,VALID,920.24,VALID,0.0,VALID,98.721,VALID,93.278,VALID,19.991,VALID,358.0,VALID,0.0,
2018-11-23, 07:28:06,VALID,920.251,VALID,0.0,VALID,98.777,VALID,102.525,VALID,20.036,VALID,347.0,VALID,0.0,
2018-11-23, 07:29:06,VALID,920.282,VALID,0.0,VALID,98.863,VALID,103.549,VALID,20.132,VALID,360.0,VALID,0.0,
2018-11-23, 07:30:06,VALID,920.292,VALID,0.0,VALID,98.935,VALID,99.949,VALID,20.206,VALID,12.0,VALID,0.0,
2018-11-23, 07:31:06,VALID,920.313,VALID,0.0,VALID,98.859,VALID,98.019,VALID,20.191,VALID,327.0,VALID,0.0,
2018-11-23, 07:32:06,VALID,920.323,VALID,0.0,VALID,98.836,VALID,98.603,VALID,20.163,VALID,233.0,VALID,0.0,
2018-11-23, 07:33:06,VALID,920.339,VALID,0.0,VALID,98.826,VALID,101.431,VALID,20.208,VALID,233.0,VALID,0.0,
2018-11-23, 07:34:06,VALID,920.357,VALID,0.0,VALID,98.68,VALID,104.007,VALID,20.112,VALID,230.0,VALID,0.0,
2018-11-23, 07:35:06,VALID,920.372,VALID,0.0,VALID,98.637,VALID,103.678,VALID,20.147,VALID,283.0,VALID,0.0,
2018-11-23, 07:36:06,VALID,920.397,VALID,0.0,VALID,98.61,VALID,97.905,VALID,20.154,VALID,319.0,VALID,0.0,
2018-11-23, 07:37:06,VALID,920.407,VALID,0.0,VALID,98.422,VALID,94.145,VALID,20.067,VALID,253.0,VALID,0.0,
2018-11-23, 07:38:06,VALID,920.427,VALID,0.0,VALID,98.346,VALID,97.577,VALID,20.106,VALID,272.0,VALID,0.0,
2018-11-23, 07:39:06,VALID,920.439,VALID,0.0,VALID,98.339,VALID,102.454,VALID,20.166,VALID,349.0,VALID,0.0,
2018-11-23, 07:40:06,VALID,920.43,VALID,0.0,VALID,98.106,VALID,107.441,VALID,20.122,VALID,354.0,VALID,0.0,
2018-11-23, 07:41:06,VALID,920.457,VALID,0.0,VALID,97.906,VALID,114.216,VALID,20.114,VALID,346.0,VALID,0.0,
2018-11-23, 07:42:06,VALID,920.454,VALID,0.0,VALID,97.863,VALID,120.408,VALID,20.16,VALID,335.0,VALID,0.0,
2018-11-23, 07:43:06,VALID,920.465,VALID,0.0,VALID,97.63,VALID,125.217,VALID,20.192,VALID,337.0,VALID,0.0,
2018-11-23, 07:44:06,VALID,920.496,VALID,0.0,VALID,97.654,VALID,130.027,VALID,20.293,VALID,330.0,VALID,0.0,
2018-11-23, 07:45:06,VALID,920.513,VALID,0.0,VALID,97.831,VALID,135.738,VALID,20.408,VALID,280.0,VALID,0.0,
2018-11-23, 07:46:06,VALID,920.514,VALID,0.0,VALID,97.892,VALID,143.124,VALID,20.464,VALID,332.0,VALID,0.0,
2018-11-23, 07:47:06,VALID,920.545,VALID,0.0,VALID,97.466,VALID,154.093,VALID,20.4,VALID,329.0,VALID,0.0,
2018-11-23, 07:48:06,VALID,920.549,VALID,0.0,VALID,97.588,VALID,167.947,VALID,20.472,VALID,1.0,VALID,0.0,
2018-11-23, 07:49:06,VALID,920.547,VALID,0.0,VALID,96.904,VALID,181.709,VALID,20.39,VALID,19.0,VALID,0.0,
2018-11-23, 07:50:06,VALID,920.575,VALID,0.0,VALID,97.318,VALID,192.576,VALID,20.51,VALID,9.0,VALID,0.0,
2018-11-23, 07:51:06,VALID,920.596,VALID,0.0,VALID,97.09,VALID,202.028,VALID,20.516,VALID,358.0,VALID,0.0,
2018-11-23, 07:52:06,VALID,920.6,VALID,0.0,VALID,96.939,VALID,215.413,VALID,20.544,VALID,353.0,VALID,0.0,
2018-11-23, 07:53:06,VALID,920.623,VALID,0.0,VALID,97.011,VALID,231.779,VALID,20.62,VALID,344.0,VALID,0.0,
2018-11-23, 07:54:06,VALID,920.642,VALID,0.0,VALID,96.555,VALID,258.916,VALID,20.574,VALID,348.0,VALID,0.0,
2018-11-23, 07:55:06,VALID,920.659,VALID,0.0,VALID,96.055,VALID,284.517,VALID,20.543,VALID,342.0,VALID,0.0,
2018-11-23, 07:56:06,VALID,920.646,VALID,0.0,VALID,96.284,VALID,309.973,VALID,20.638,VALID,345.0,VALID,0.0,
2018-11-23, 07:57:06,VALID,920.641,VALID,0.0,VALID,96.01,VALID,334.856,VALID,20.653,VALID,344.0,VALID,0.0,
2018-11-23, 07:58:06,VALID,920.648,VALID,0.0,VALID,96.465,VALID,336.726,VALID,20.784,VALID,332.0,VALID,0.0,
2018-11-23, 07:59:06,VALID,920.656,VALID,0.0,VALID,96.431,VALID,338.75,VALID,20.86,VALID,345.0,VALID,0.0,
2018-11-23, 08:00:06,VALID,920.681,VALID,0.0,VALID,96.065,VALID,330.888,VALID,20.91,VALID,237.0,VALID,0.0,
2018-11-23, 08:01:06,VALID,920.69,VALID,0.0,VALID,95.665,VALID,321.56,VALID,20.915,VALID,214.0,VALID,0.0,
2018-11-23, 08:02:06,VALID,920.714,VALID,0.0,VALID,95.75,VALID,320.557,VALID,20.906,VALID,212.0,VALID,0.0,
2018-11-23, 08:03:06,VALID,920.702,VALID,0.0,VALID,95.736,VALID,317.062,VALID,20.915,VALID,250.0,VALID,0.0,
2018-11-23, 08:04:06,VALID,920.717,VALID,0.0,VALID,95.701,VALID,301.169,VALID,20.883,VALID,223.0,VALID,0.0,
2018-11-23, 08:05:06,VALID,920.734,VALID,0.0,VALID,95.821,VALID,298.416,VALID,20.926,VALID,231.0,VALID,0.0,
2018-11-23, 08:06:06,VALID,920.733,VALID,0.0,VALID,96.398,VALID,297.249,VALID,21.102,VALID,231.0,VALID,0.0,
2018-11-23, 08:07:06,VALID,920.736,VALID,0.0,VALID,96.508,VALID,297.724,VALID,21.235,VALID,235.0,VALID,0.0,
2018-11-23, 08:08:06,VALID,920.763,VALID,0.0,VALID,95.926,VALID,294.65,VALID,21.254,VALID,219.0,VALID,0.0,
2018-11-23, 08:09:06,VALID,920.77,VALID,0.0,VALID,95.317,VALID,287.077,VALID,21.293,VALID,241.0,VALID,0.0,
2018-11-23, 08:10:06,VALID,920.776,VALID,0.0,VALID,95.429,VALID,281.559,VALID,21.358,VALID,293.0,VALID,0.0,
2018-11-23, 08:11:06,VALID,920.787,VALID,0.0,VALID,96.093,VALID,282.667,VALID,21.518,VALID,354.0,VALID,0.0,
2018-11-23, 08:12:06,VALID,920.8,VALID,0.0,VALID,96.419,VALID,289.015,VALID,21.662,VALID,12.0,VALID,0.0,
2018-11-23, 08:13:06,VALID,920.782,VALID,0.0,VALID,94.623,VALID,287.585,VALID,21.601,VALID,1.0,VALID,0.0,
2018-11-23, 08:14:06,VALID,920.808,VALID,0.0,VALID,93.439,VALID,283.759,VALID,21.6,VALID,6.0,VALID,0.0,
2018-11-23, 08:15:06,VALID,920.817,VALID,0.0,VALID,93.795,VALID,279.748,VALID,21.69,VALID,18.0,VALID,0.0,
2018-11-23, 08:16:06,VALID,920.834,VALID,0.0,VALID,93.954,VALID,283.639,VALID,21.767,VALID,12.0,VALID,0.0,
2018-11-23, 08:17:06,VALID,920.837,VALID,0.0,VALID,92.827,VALID,297.878,VALID,21.748,VALID,255.0,VALID,0.0,
2018-11-23, 08:18:06,VALID,920.838,VALID,0.0,VALID,91.986,VALID,296.452,VALID,21.639,VALID,243.0,VALID,0.0,
2018-11-23, 08:19:06,VALID,920.85,VALID,0.0,VALID,92.111,VALID,295.174,VALID,21.571,VALID,250.0,VALID,0.0,
2018-11-23, 08:20:06,VALID,920.862,VALID,0.0,VALID,93.209,VALID,300.332,VALID,21.639,VALID,329.0,VALID,0.0,
2018-11-23, 08:21:06,VALID,920.878,VALID,0.0,VALID,91.02,VALID,324.617,VALID,21.638,VALID,336.0,VALID,0.0,
2018-11-23, 08:22:06,VALID,920.904,VALID,0.0,VALID,90.907,VALID,321.286,VALID,21.714,VALID,345.0,VALID,0.0,
2018-11-23, 08:23:06,VALID,920.917,VALID,0.0,VALID,90.005,VALID,309.766,VALID,21.73,VALID,267.0,VALID,0.0,
2018-11-23, 08:24:06,VALID,920.925,VALID,0.0,VALID,90.56,VALID,312.159,VALID,21.668,VALID,267.0,VALID,0.0,
2018-11-23, 08:25:06,VALID,920.94,VALID,0.0,VALID,91.532,VALID,296.602,VALID,21.698,VALID,243.0,VALID,0.0,
2018-11-23, 08:26:06,VALID,920.964,VALID,0.0,VALID,92.118,VALID,264.516,VALID,21.743,VALID,222.0,VALID,0.0,
2018-11-23, 08:27:06,VALID,920.962,VALID,0.0,VALID,92.582,VALID,247.534,VALID,21.759,VALID,242.0,VALID,0.0,
2018-11-23, 08:28:06,VALID,920.97,VALID,0.0,VALID,91.851,VALID,256.94,VALID,21.73,VALID,272.0,VALID,0.0,
2018-11-23, 08:29:06,VALID,920.967,VALID,0.0,VALID,91.341,VALID,304.245,VALID,21.687,VALID,224.0,VALID,0.0,
2018-11-23, 08:30:06,VALID,920.974,VALID,0.0,VALID,90.901,VALID,364.652,VALID,21.621,VALID,222.0,VALID,0.0,
2018-11-23, 08:31:06,VALID,920.973,VALID,0.0,VALID,92.89,VALID,444.405,VALID,21.751,VALID,14.0,VALID,0.0,
2018-11-23, 08:32:06,VALID,920.949,VALID,0.0,VALID,94.084,VALID,446.043,VALID,21.929,VALID,259.0,VALID,0.0,
2018-11-23, 08:33:06,VALID,920.962,VALID,0.0,VALID,93.038,VALID,692.818,VALID,22.026,VALID,244.0,VALID,0.0,
2018-11-23, 08:34:06,VALID,920.999,VALID,0.0,VALID,92.02,VALID,522.314,VALID,22.147,VALID,345.0,VALID,0.0,
2018-11-23, 08:35:06,VALID,920.992,VALID,0.0,VALID,91.559,VALID,508.187,VALID,22.266,VALID,275.0,VALID,0.0,
2018-11-23, 08:36:06,VALID,920.988,VALID,0.0,VALID,91.489,VALID,405.145,VALID,22.327,VALID,316.0,VALID,0.0,
2018-11-23, 08:37:06,VALID,920.995,VALID,0.0,VALID,91.547,VALID,305.627,VALID,22.404,VALID,295.0,VALID,0.0,
2018-11-23, 08:38:06,VALID,921.014,VALID,0.0,VALID,89.281,VALID,286.787,VALID,22.321,VALID,217.0,VALID,0.0,
2018-11-23, 08:39:06,VALID,921.022,VALID,0.0,VALID,88.906,VALID,242.619,VALID,22.18,VALID,210.0,VALID,0.0,
2018-11-23, 08:40:06,VALID,921.045,VALID,0.0,VALID,90.501,VALID,223.989,VALID,22.192,VALID,340.0,VALID,0.0,
2018-11-23, 08:41:06,VALID,921.05,VALID,0.0,VALID,90.059,VALID,210.484,VALID,22.143,VALID,351.0,VALID,0.0,
2018-11-23, 08:42:06,VALID,921.077,VALID,0.0,VALID,89.974,VALID,198.403,VALID,22.024,VALID,292.0,VALID,0.0,
2018-11-23, 08:43:06,VALID,921.102,VALID,0.0,VALID,90.635,VALID,183.655,VALID,21.983,VALID,340.0,VALID,0.0,
2018-11-23, 08:44:06,VALID,921.144,VALID,0.0,VALID,91.939,VALID,166.045,VALID,22.003,VALID,16.0,VALID,0.0,
2018-11-23, 08:45:06,VALID,921.152,VALID,0.0,VALID,91.639,VALID,151.617,VALID,21.991,VALID,286.0,VALID,0.0,
2018-11-23, 08:46:06,VALID,921.181,VALID,0.0,VALID,90.793,VALID,141.038,VALID,21.889,VALID,236.0,VALID,0.0,
2018-11-23, 08:47:06,VALID,921.187,VALID,0.0,VALID,90.47,VALID,132.339,VALID,21.685,VALID,225.0,VALID,0.0,
2018-11-23, 08:48:06,VALID,921.207,VALID,0.0,VALID,91.537,VALID,126.071,VALID,21.559,VALID,234.0,VALID,0.0,
2018-11-23, 08:49:06,VALID,921.222,VALID,0.0,VALID,92.551,VALID,127.478,VALID,21.506,VALID,244.0,VALID,0.0,
2018-11-23, 08:50:06,VALID,921.222,VALID,0.0,VALID,93.202,VALID,132.866,VALID,21.525,VALID,295.0,VALID,0.0,
2018-11-23, 08:51:06,VALID,921.224,VALID,0.0,VALID,94.091,VALID,136.488,VALID,21.635,VALID,4.0,VALID,0.0,
2018-11-23, 08:52:06,VALID,921.235,VALID,0.0,VALID,93.703,VALID,137.994,VALID,21.684,VALID,358.0,VALID,0.0,
2018-11-23, 08:53:06,VALID,921.246,VALID,0.0,VALID,92.742,VALID,142.176,VALID,21.699,VALID,354.0,VALID,0.0,
2018-11-23, 08:54:06,VALID,921.268,VALID,0.0,VALID,93.168,VALID,155.712,VALID,21.758,VALID,2.0,VALID,0.0,
2018-11-23, 08:55:06,VALID,921.268,VALID,0.0,VALID,92.359,VALID,174.918,VALID,21.741,VALID,4.0,VALID,0.0,
2018-11-23, 08:56:06,VALID,921.276,VALID,0.0,VALID,92.901,VALID,193.139,VALID,21.74,VALID,28.0,VALID,0.0,
2018-11-23, 08:57:06,VALID,921.291,VALID,0.0,VALID,92.721,VALID,205.363,VALID,21.749,VALID,336.0,VALID,0.0,
2018-11-23, 08:58:06,VALID,921.311,VALID,0.0,VALID,91.926,VALID,209.653,VALID,21.722,VALID,335.0,VALID,0.0,
2018-11-23, 08:59:06,VALID,921.312,VALID,0.0,VALID,92.527,VALID,208.799,VALID,21.767,VALID,354.0,VALID,0.0,
2018-11-23, 09:00:06,VALID,921.325,VALID,0.0,VALID,91.607,VALID,207.58,VALID,21.736,VALID,360.0,VALID,0.0,
2018-11-23, 09:01:06,VALID,921.339,VALID,0.0,VALID,92.549,VALID,207.049,VALID,21.739,VALID,305.0,VALID,0.0,
2018-11-23, 09:02:06,VALID,921.349,VALID,0.0,VALID,92.517,VALID,207.727,VALID,21.714,VALID,20.0,VALID,0.0,
2018-11-23, 09:03:06,VALID,921.347,VALID,0.0,VALID,93.046,VALID,208.713,VALID,21.713,VALID,12.0,VALID,0.0,
2018-11-23, 09:04:06,VALID,921.361,VALID,0.0,VALID,93.392,VALID,208.546,VALID,21.709,VALID,358.0,VALID,0.0,
2018-11-23, 09:05:06,VALID,921.374,VALID,0.0,VALID,94.011,VALID,208.146,VALID,21.777,VALID,335.0,VALID,0.0,
2018-11-23, 09:06:06,VALID,921.381,VALID,0.0,VALID,93.357,VALID,208.202,VALID,21.819,VALID,356.0,VALID,0.0,
2018-11-23, 09:07:06,VALID,921.4,VALID,0.0,VALID,93.037,VALID,208.137,VALID,21.837,VALID,3.0,VALID,0.0,
2018-11-23, 09:08:06,VALID,921.408,VALID,0.0,VALID,93.617,VALID,209.805,VALID,21.905,VALID,21.0,VALID,0.0,
2018-11-23, 09:09:06,VALID,921.405,VALID,0.0,VALID,92.835,VALID,211.58,VALID,21.903,VALID,28.0,VALID,0.0,
2018-11-23, 09:10:06,VALID,921.402,VALID,0.0,VALID,93.345,VALID,214.23,VALID,21.955,VALID,348.0,VALID,0.0,
2018-11-23, 09:11:06,VALID,921.38,VALID,0.0,VALID,93.525,VALID,215.774,VALID,21.988,VALID,1.0,VALID,0.0,
2018-11-23, 09:12:06,VALID,921.395,VALID,0.0,VALID,93.09,VALID,213.562,VALID,22.001,VALID,2.0,VALID,0.0,
2018-11-23, 09:13:06,VALID,921.393,VALID,0.0,VALID,93.706,VALID,213.234,VALID,22.063,VALID,21.0,VALID,0.0,
2018-11-23, 09:14:06,VALID,921.388,VALID,0.0,VALID,92.896,VALID,216.865,VALID,22.054,VALID,15.0,VALID,0.0,
2018-11-23, 09:15:06,VALID,921.375,VALID,0.0,VALID,93.218,VALID,223.656,VALID,22.083,VALID,21.0,VALID,0.0,
2018-11-23, 09:16:06,VALID,921.384,VALID,0.0,VALID,92.723,VALID,229.854,VALID,22.077,VALID,5.0,VALID,0.0,
2018-11-23, 09:17:06,VALID,921.373,VALID,0.0,VALID,91.61,VALID,229.361,VALID,22.041,VALID,360.0,VALID,0.0,
2018-11-23, 09:18:06,VALID,921.357,VALID,0.0,VALID,91.112,VALID,235.643,VALID,21.938,VALID,359.0,VALID,0.0,
2018-11-23, 09:19:06,VALID,921.377,VALID,0.0,VALID,91.149,VALID,238.806,VALID,21.85,VALID,309.0,VALID,0.0,
2018-11-23, 09:20:06,VALID,921.377,VALID,0.0,VALID,92.066,VALID,238.545,VALID,21.859,VALID,353.0,VALID,0.0,
2018-11-23, 09:21:06,VALID,921.384,VALID,0.0,VALID,92.117,VALID,235.795,VALID,21.89,VALID,349.0,VALID,0.0,
2018-11-23, 09:22:06,VALID,921.397,VALID,0.0,VALID,91.86,VALID,234.903,VALID,21.872,VALID,16.0,VALID,0.0,
2018-11-23, 09:23:06,VALID,921.402,VALID,0.0,VALID,92.284,VALID,239.274,VALID,21.834,VALID,5.0,VALID,0.0,
2018-11-23, 09:24:06,VALID,921.418,VALID,0.0,VALID,93.301,VALID,247.268,VALID,21.897,VALID,360.0,VALID,0.0,
2018-11-23, 09:25:06,VALID,921.436,VALID,0.0,VALID,93.841,VALID,258.892,VALID,22.017,VALID,326.0,VALID,0.0,
2018-11-23, 09:26:06,VALID,921.415,VALID,0.0,VALID,92.983,VALID,275.121,VALID,22.075,VALID,21.0,VALID,0.0,
2018-11-23, 09:27:06,VALID,921.438,VALID,0.0,VALID,93.005,VALID,271.87,VALID,22.129,VALID,11.0,VALID,0.0,
2018-11-23, 09:28:06,VALID,921.442,VALID,0.0,VALID,92.674,VALID,283.958,VALID,22.17,VALID,337.0,VALID,0.0,
2018-11-23, 09:29:06,VALID,921.448,VALID,0.0,VALID,92.509,VALID,306.11,VALID,22.177,VALID,20.0,VALID,0.0,
2018-11-23, 09:30:06,VALID,921.446,VALID,0.0,VALID,92.4,VALID,333.397,VALID,22.116,VALID,2.0,VALID,0.0,
2018-11-23, 09:31:06,VALID,921.437,VALID,0.0,VALID,92.241,VALID,364.756,VALID,21.964,VALID,317.0,VALID,0.0,
2018-11-23, 09:32:06,VALID,921.463,VALID,0.0,VALID,92.662,VALID,395.465,VALID,21.922,VALID,308.0,VALID,0.0,
2018-11-23, 09:33:06,VALID,921.458,VALID,0.0,VALID,93.078,VALID,421.619,VALID,21.947,VALID,303.0,VALID,0.0,
2018-11-23, 09:34:06,VALID,921.444,VALID,0.0,VALID,93.47,VALID,437.501,VALID,22.009,VALID,324.0,VALID,0.0,
2018-11-23, 09:35:06,VALID,921.432,VALID,0.0,VALID,92.915,VALID,461.461,VALID,22.003,VALID,317.0,VALID,0.0,
2018-11-23, 09:36:06,VALID,921.409,VALID,0.0,VALID,93.028,VALID,470.631,VALID,22.024,VALID,5.0,VALID,0.0,
2018-11-23, 09:37:06,VALID,921.422,VALID,0.0,VALID,93.413,VALID,467.883,VALID,22.082,VALID,338.0,VALID,0.0,
2018-11-23, 09:38:06,VALID,921.413,VALID,0.0,VALID,94.009,VALID,406.628,VALID,22.194,VALID,357.0,VALID,0.0,
2018-11-23, 09:39:06,VALID,921.406,VALID,0.0,VALID,94.302,VALID,366.991,VALID,22.357,VALID,14.0,VALID,0.0,
2018-11-23, 09:40:06,VALID,921.409,VALID,0.0,VALID,93.629,VALID,363.587,VALID,22.495,VALID,282.0,VALID,0.0,
2018-11-23, 09:41:06,VALID,921.415,VALID,0.0,VALID,92.569,VALID,368.109,VALID,22.586,VALID,10.0,VALID,0.0,
2018-11-23, 09:42:06,VALID,921.412,VALID,0.0,VALID,91.33,VALID,363.923,VALID,22.586,VALID,254.0,VALID,0.0,
2018-11-23, 09:43:06,VALID,921.408,VALID,0.0,VALID,89.302,VALID,326.042,VALID,22.606,VALID,243.0,VALID,0.0,
2018-11-23, 09:44:06,VALID,921.397,VALID,0.0,VALID,88.957,VALID,295.639,VALID,22.671,VALID,327.0,VALID,0.0,
2018-11-23, 09:45:06,VALID,921.41,VALID,0.0,VALID,89.194,VALID,294.858,VALID,22.726,VALID,29.0,VALID,0.0,
2018-11-23, 09:46:06,VALID,921.408,VALID,0.0,VALID,89.343,VALID,312.832,VALID,22.757,VALID,268.0,VALID,0.0,
2018-11-23, 09:47:06,VALID,921.424,VALID,0.0,VALID,87.324,VALID,345.612,VALID,22.679,VALID,336.0,VALID,0.0,
2018-11-23, 09:48:06,VALID,921.43,VALID,0.0,VALID,90.369,VALID,456.628,VALID,22.79,VALID,22.0,VALID,0.0,
2018-11-23, 09:49:06,VALID,921.437,VALID,0.0,VALID,88.517,VALID,400.53,VALID,22.857,VALID,3.0,VALID,0.0,
2018-11-23, 09:50:06,VALID,921.432,VALID,0.0,VALID,86.738,VALID,415.404,VALID,22.68,VALID,16.0,VALID,0.0,
2018-11-23, 09:51:06,VALID,921.427,VALID,0.0,VALID,89.554,VALID,535.213,VALID,22.646,VALID,4.0,VALID,0.0,
2018-11-23, 09:52:06,VALID,921.407,VALID,0.0,VALID,88.626,VALID,454.477,VALID,22.602,VALID,336.0,VALID,0.0,
2018-11-23, 09:53:06,VALID,921.396,VALID,0.0,VALID,88.632,VALID,462.983,VALID,22.56,VALID,322.0,VALID,0.0,
2018-11-23, 09:54:06,VALID,921.406,VALID,0.0,VALID,88.253,VALID,354.391,VALID,22.54,VALID,341.0,VALID,0.0,
2018-11-23, 09:55:06,VALID,921.405,VALID,0.0,VALID,86.3,VALID,275.673,VALID,22.525,VALID,271.0,VALID,0.0,
2018-11-23, 09:56:06,VALID,921.398,VALID,0.0,VALID,86.555,VALID,254.974,VALID,22.498,VALID,214.0,VALID,0.0,
2018-11-23, 09:57:06,VALID,921.393,VALID,0.0,VALID,87.548,VALID,275.026,VALID,22.609,VALID,213.0,VALID,0.0,
2018-11-23, 09:58:06,VALID,921.386,VALID,0.0,VALID,88.583,VALID,328.709,VALID,22.68,VALID,256.0,VALID,0.0,
2018-11-23, 09:59:06,VALID,921.38,VALID,0.0,VALID,87.882,VALID,556.751,VALID,22.63,VALID,247.0,VALID,0.0,
2018-11-23, 10:00:06,VALID,921.345,VALID,0.0,VALID,87.678,VALID,857.181,VALID,22.538,VALID,240.0,VALID,0.0,
2018-11-23, 10:01:06,VALID,921.329,VALID,0.0,VALID,86.748,VALID,992.813,VALID,22.486,VALID,231.0,VALID,0.0,
2018-11-23, 10:02:06,VALID,921.291,VALID,0.0,VALID,87.903,VALID,957.215,VALID,22.581,VALID,173.0,VALID,0.0,
2018-11-23, 10:03:06,VALID,921.258,VALID,0.0,VALID,89.73,VALID,951.734,VALID,22.991,VALID,192.0,VALID,0.0,
2018-11-23, 10:04:06,VALID,921.237,VALID,0.0,VALID,86.945,VALID,916.446,VALID,23.363,VALID,278.0,VALID,0.0,
2018-11-23, 10:05:06,VALID,921.228,VALID,0.0,VALID,84.013,VALID,832.658,VALID,23.369,VALID,263.0,VALID,0.0,
2018-11-23, 10:06:06,VALID,921.197,VALID,0.0,VALID,84.768,VALID,880.387,VALID,23.43,VALID,335.0,VALID,0.0,
2018-11-23, 10:07:06,VALID,921.192,VALID,0.0,VALID,81.788,VALID,665.36,VALID,23.599,VALID,295.0,VALID,0.0,
2018-11-23, 10:08:06,VALID,921.173,VALID,0.0,VALID,81.047,VALID,892.279,VALID,23.597,INVALID,360.0,VALID,0.0,
2018-11-23, 10:09:06,VALID,921.179,VALID,0.0,VALID,83.302,VALID,795.308,VALID,23.727,INVALID,360.0,VALID,0.0,
2018-11-23, 10:10:06,VALID,921.187,VALID,0.0,VALID,83.447,VALID,560.731,VALID,23.872,INVALID,360.0,VALID,0.0,
2018-11-23, 10:11:06,VALID,921.182,VALID,0.0,VALID,82.682,VALID,514.047,VALID,23.865,INVALID,360.0,VALID,0.0,
2018-11-23, 10:12:06,VALID,921.201,VALID,0.0,VALID,84.083,VALID,518.361,VALID,23.953,INVALID,360.0,VALID,0.0,
2018-11-23, 10:13:06,VALID,921.195,VALID,0.0,VALID,82.079,VALID,572.765,VALID,23.879,INVALID,360.0,VALID,0.0,
2018-11-23, 10:14:06,VALID,921.175,VALID,0.0,VALID,80.403,VALID,539.0,VALID,23.685,INVALID,360.0,VALID,0.0,
2018-11-23, 10:15:06,VALID,921.149,VALID,0.0,VALID,81.203,VALID,505.109,VALID,23.594,INVALID,360.0,VALID,0.0,
2018-11-23, 10:16:06,VALID,921.126,VALID,0.0,VALID,80.483,VALID,447.231,VALID,23.588,INVALID,360.0,VALID,0.0,
2018-11-23, 10:17:06,VALID,921.133,VALID,0.0,VALID,80.394,VALID,427.282,VALID,23.585,INVALID,360.0,VALID,0.0,
2018-11-23, 10:18:06,VALID,921.13,VALID,0.0,VALID,79.796,VALID,416.988,VALID,23.588,INVALID,360.0,VALID,0.0,
2018-11-23, 10:19:06,VALID,921.13,VALID,0.0,VALID,81.535,VALID,458.555,VALID,23.521,INVALID,360.0,VALID,0.0,
2018-11-23, 10:20:06,VALID,921.137,VALID,0.0,VALID,83.441,VALID,407.76,VALID,23.465,INVALID,360.0,VALID,0.0,
2018-11-23, 10:21:06,VALID,921.115,VALID,0.0,VALID,82.052,VALID,354.453,VALID,23.347,INVALID,360.0,VALID,0.0,
2018-11-23, 10:22:06,VALID,921.075,VALID,0.0,VALID,81.425,VALID,328.654,VALID,23.275,INVALID,360.0,VALID,0.0,
2018-11-23, 10:23:06,VALID,921.077,VALID,0.0,VALID,83.482,VALID,332.46,VALID,23.419,INVALID,360.0,VALID,0.0,
2018-11-23, 10:24:06,VALID,921.037,VALID,0.0,VALID,83.799,VALID,334.183,VALID,23.672,INVALID,360.0,VALID,0.0,
2018-11-23, 10:25:06,VALID,921.035,VALID,0.0,VALID,81.942,VALID,327.725,VALID,23.584,INVALID,360.0,VALID,0.0,
2018-11-23, 10:26:06,VALID,921.036,VALID,0.0,VALID,83.447,VALID,317.362,VALID,23.289,INVALID,360.0,VALID,0.0,
2018-11-23, 10:27:06,VALID,921.006,VALID,0.0,VALID,84.135,VALID,301.939,VALID,23.17,INVALID,360.0,VALID,0.0,
2018-11-23, 10:28:06,VALID,921.013,VALID,0.0,VALID,84.741,VALID,291.112,VALID,23.054,INVALID,360.0,VALID,0.0,
2018-11-23, 10:29:06,VALID,920.996,VALID,0.0,VALID,84.225,VALID,289.403,VALID,22.947,INVALID,360.0,VALID,0.0,
2018-11-23, 10:30:06,VALID,920.985,VALID,0.0,VALID,83.953,VALID,278.052,VALID,22.783,INVALID,360.0,VALID,0.0,
2018-11-23, 10:31:06,VALID,920.98,VALID,0.0,VALID,84.757,VALID,264.804,VALID,22.721,INVALID,360.0,VALID,0.0,
2018-11-23, 10:32:06,VALID,920.964,VALID,0.0,VALID,85.639,VALID,267.361,VALID,22.769,INVALID,360.0,VALID,0.0,
2018-11-23, 10:33:06,VALID,920.952,VALID,0.0,VALID,85.981,VALID,303.173,VALID,22.874,INVALID,360.0,VALID,0.0,
2018-11-23, 10:34:06,VALID,920.924,VALID,0.0,VALID,84.053,VALID,421.054,VALID,22.835,INVALID,360.0,VALID,0.0,
2018-11-23, 10:35:06,VALID,920.937,VALID,0.0,VALID,85.019,VALID,534.441,VALID,22.832,INVALID,360.0,VALID,0.0,
2018-11-23, 10:36:06,VALID,920.931,VALID,0.0,VALID,84.605,VALID,609.996,VALID,22.968,INVALID,360.0,VALID,0.0,
2018-11-23, 10:37:06,VALID,920.921,VALID,0.0,VALID,84.132,VALID,672.033,VALID,23.054,INVALID,360.0,VALID,0.0,
2018-11-23, 10:38:06,VALID,920.895,VALID,0.0,VALID,83.387,VALID,696.668,VALID,23.145,INVALID,360.0,VALID,0.632,
2018-11-23, 10:39:06,VALID,920.885,VALID,0.0,VALID,82.904,VALID,757.708,VALID,23.374,VALID,215.0,VALID,0.523,